Location: ?ejeti?ky
(50.4060°N, 14.9016°E)
Time: 23:58:17
(UTC+00:00)

STARLINK-1282 - Pass Details

Date: 07 October 2020
Orbit: 549 x 551 km, 53.0° (Epoch: 27 October)

Event Time Altitude Azimuth Distance (km) Brightness Sun altitude
Exits shadow 02:13:32 26° 113° (ESE) 1,115 5.5 -28.2°
Drops below altitude 10° 02:16:04 10° 80° (E) 1,826 7.1 -27.8°
Sets 02:18:30 0° 70° (ENE) 2,724 8.4 -27.5°
